Regional Weather Roundup
Issued by NWS

Home | Current Version | Previous Version | Graphics & Text | Print | Product List | Glossary On
Versions: 1 2 3 4 5 6 7 8 9 10 11 12 13 14 15 16 17 18 19 20 21 22 23 24 25 26 27 28 29 30 31 32 33 34 35 36 37 38 39 40 41 42 43 44 45 46 47 48 49 50
456
ASUS45 KCYS 090910
RWRWY

WYOMING REGIONAL WEATHER ROUNDUP
NATIONAL WEATHER SERVICE CHEYENNE WY
200 AM MST FRI DEC 09 2016

NOTE:  "FAIR" INDICATES FEW OR NO CLOUDS BELOW 12,000 FEET
WITH NO SIGNIFICANT WEATHER AND/OR OBSTRUCTIONS TO VISIBILITY.

WYZ001-091000-
YELLOWSTONE NATIONAL PARK

CITY           SKY/WX    TMP DP  RH WIND       PRES   REMARKS
LK YELLOWSTONE   N/A      7   5  91 CALM      29.96R
W YELLOWSTONE  NOT AVBL

$$
WYZ002>013-054>058-071-098>099-091000-
NORTHERN WYOMING

CITY           SKY/WX    TMP DP  RH WIND       PRES   REMARKS
JACKSON        CLOUDY    16  14  93 SW6       30.01S WCI   7
CODY           FLURRIES   1  -2  87 N7        30.09R WCI -12
GREYBULL       MOCLDY     7   1  76 CALM      30.15S
WORLAND        FAIR       0  -3  87 CALM      30.13S
SHERIDAN       CLOUDY     2  -3  80 CALM      30.19F
BUFFALO        MOCLDY     1  -5  75 NW10      30.09R WCI -15
GILLETTE       CLOUDY    -1  -6  79 N3        30.14S
HULETT         PTSUNNY   -4  -8  84 CALM      30.18F
NEWCASTLE      FAIR      12   3  67 SE9       30.15F WCI   0

$$
WYZ014>020-022>026-101>103-091000-
CENTRAL WYOMING

CITY           SKY/WX    TMP DP  RH WIND       PRES   REMARKS
BIG PINEY      LGT SNOW   9   6  88 CALM      30.09R VSB 3/4
PINEDALE       SNOW      10   7  85 N6        30.08F VSB 1/2 WCI   1
DUBOIS         PTSUNNY   21  12  68 NW17G23   29.88S WCI   7
LANDER         FAIR      -1  -4  87 E5        30.00F WCI -11
RIVERTON       FAIR       3  -2  79 SW3       30.02S
CASPER         FAIR      -7 -12  79 CALM      30.02S
DOUGLAS        CLOUDY     7   2  80 SE5       30.06F WCI  -2

$$
WYZ021-027>030-104>119-091000-
SOUTHERN WYOMING

CITY           SKY/WX    TMP DP  RH WIND       PRES   REMARKS
EVANSTON       LGT SNOW  29  26  89 SW20      30.08S FOG     WCI  16
FORT BRIDGER   FLURRIES  15  14  96 NW3       30.11R
ROCK SPRINGS   LGT SNOW  10   7  87 W10       30.10R FOG     WCI  -4
DIXON          CLOUDY    30  16  55 W12G20    30.15S WCI  20
RAWLINS        FAIR      27  17  66 W24G35    30.02R WCI  12
SARATOGA       CLOUDY    28  19  69 SW10      30.06S WCI  19
LARAMIE        FAIR      26  17  68 SW22G30   30.00S WCI  12
CHEYENNE       CLOUDY    13   4  67 S12       30.03F WCI  -1
TORRINGTON     CLOUDY     9   2  73 E14       30.12F WCI  -7
PINE BLUFFS    CLOUDY    10   9  92 SW7       30.12F WCI   0

$$




USA.gov is the U.S. government's official web portal to all federal, state and local government web resources and services.